sat.trackr.live / text

‹ back to catalog

STARLINK-36493

NORAD 67456 · 2026-008M

PAYLOAD ACTIVE UNKNOWN

§ Identity

Operator
Country
US
Launch date
2026-01-14
Launch site
AFETR
Launch vehicle
Mass (kg)
RCS (m²)

Purposes: comms

External: N2YO · Heavens-Above · Gunter

§ Orbital elements

Epoch: 2026-05-24T23:51:04.314816Z

Period
94.27 min
Inclination
42.9963°
Eccentricity
0.0000990
Mean motion
15.27595162 rev/d
Perigee alt
482.3 km
Apogee alt
483.7 km
Semi-major
6,861.1 km
B*
6.4225e-4
RAAN
134.1556°
Arg perigee
299.7874°
Mean anomaly
60.2879°
Rev number
2,124

§ Raw data

STARLINK-364931 67456U 26008M   26144.99379994  .00017461  00000+0  64225-3 0  99902 67456  42.9963 134.1556 0000990 299.7874  60.2879 15.27595162 21246

JSON: /api/v1/satellites/67456 · /tle

For live sub-satellite position, see the globe view (requires WebGL).

§ Visibility from observer

Set your observer location to see the next 7 days of passes ≥ 10°. The values pass through the URL so the page stays shareable.

No JS? Fill the form by hand. The geolocation button needs JavaScript.